BAW733 EGLL-BIKF

Flight info

Callsign BAW733
Flight time N/A
Altitude 38000
Route ULTIB T420 TNT UN57 POL UN601 RIBEL DCT ORSUM DCT BARKU DCT RATSU/M080F380 DCT ALDAN DCT ASRUN ASRUN4N
Aircraft A21N/M-SDE2E3FGHIRWXY/LB1

Departure

Time N/A
Airport London Heathrow Airport (EGLL)

Arrival

Time 2026-05-05 10:08
Airport Keflavik International Airport (BIKF)
Time Latitude Longitude Altitude Speed Heading
2026-05-05 07:42 52.68354 -1.29005 26448 ft 474 kts 327°
2026-05-05 07:42 52.71162 -1.31858 26955 ft 473 kts 327°
2026-05-05 07:43 52.73954 -1.34712 27465 ft 471 kts 327°
2026-05-05 07:43 52.76744 -1.37564 27971 ft 470 kts 327°
2026-05-05 07:43 52.79522 -1.40390 28435 ft 469 kts 327°
2026-05-05 07:43 52.82300 -1.43222 28908 ft 468 kts 327°
2026-05-05 07:44 52.85035 -1.46021 29356 ft 468 kts 328°
2026-05-05 07:44 52.87799 -1.48860 29887 ft 465 kts 328°
2026-05-05 07:44 52.90549 -1.51682 30378 ft 463 kts 328°
2026-05-05 07:44 52.93287 -1.54500 30808 ft 461 kts 328°
2026-05-05 07:45 52.96013 -1.57309 31143 ft 462 kts 329°
2026-05-05 07:45 52.98715 -1.60095 31459 ft 463 kts 329°
2026-05-05 07:45 53.01460 -1.62929 31770 ft 464 kts 329°
2026-05-05 07:45 53.04198 -1.65739 32183 ft 462 kts 330°
2026-05-05 07:46 53.07094 -1.68066 32600 ft 459 kts 340°
2026-05-05 07:46 53.09072 -1.69307 32896 ft 457 kts 340°
2026-05-05 07:46 53.13039 -1.71753 33416 ft 455 kts 340°
2026-05-05 07:46 53.14992 -1.72955 33677 ft 454 kts 340°
2026-05-05 07:47 53.18950 -1.75406 34140 ft 453 kts 340°
2026-05-05 07:47 53.20915 -1.76627 34296 ft 453 kts 340°
2026-05-05 07:47 53.23883 -1.78475 34528 ft 454 kts 340°
2026-05-05 07:47 53.26839 -1.80318 34778 ft 454 kts 339°
2026-05-05 07:48 53.29816 -1.82181 35018 ft 453 kts 339°
2026-05-05 07:48 53.32718 -1.83996 35256 ft 453 kts 339°
2026-05-05 07:48 53.35680 -1.85846 35495 ft 453 kts 339°
2026-05-05 07:48 53.38627 -1.87692 35724 ft 452 kts 339°
2026-05-05 07:49 53.41572 -1.89542 35940 ft 452 kts 339°
2026-05-05 07:49 53.44536 -1.91408 36166 ft 451 kts 339°
2026-05-05 07:49 53.47475 -1.93256 36383 ft 451 kts 338°
2026-05-05 07:49 53.50419 -1.95116 36562 ft 451 kts 338°
2026-05-05 07:50 53.53360 -1.96979 36745 ft 452 kts 338°
2026-05-05 07:50 53.56300 -1.98842 36944 ft 451 kts 338°
2026-05-05 07:50 53.59203 -2.00681 37146 ft 451 kts 338°
2026-05-05 07:50 53.62142 -2.02544 37346 ft 450 kts 338°
2026-05-05 07:51 53.65078 -2.04408 37516 ft 450 kts 338°
2026-05-05 07:51 53.68005 -2.06271 37687 ft 450 kts 338°
2026-05-05 07:51 53.70931 -2.08137 37853 ft 450 kts 338°
2026-05-05 07:51 53.73860 -2.10008 38017 ft 449 kts 338°
2026-05-05 07:52 53.79678 -2.13940 38071 ft 449 kts 336°
2026-05-05 07:52 53.85442 -2.17881 38042 ft 449 kts 336°
2026-05-05 07:53 53.91231 -2.21845 38044 ft 448 kts 336°
2026-05-05 07:53 53.97015 -2.25812 38043 ft 448 kts 336°
2026-05-05 07:54 54.02736 -2.29996 38039 ft 446 kts 330°
2026-05-05 07:54 54.08224 -2.34964 38043 ft 446 kts 330°
2026-05-05 07:55 54.13651 -2.39917 38045 ft 445 kts 330°
2026-05-05 07:55 54.19131 -2.44923 38046 ft 445 kts 330°
2026-05-05 07:56 54.24594 -2.49925 38048 ft 445 kts 329°
2026-05-05 07:56 54.30050 -2.54942 38047 ft 444 kts 329°
2026-05-05 07:57 54.35472 -2.59940 38043 ft 444 kts 329°
2026-05-05 07:57 54.40922 -2.64977 38041 ft 444 kts 329°
2026-05-05 07:58 54.46368 -2.70027 38043 ft 444 kts 329°
2026-05-05 07:58 54.51814 -2.75089 38046 ft 445 kts 329°
2026-05-05 07:59 54.57255 -2.80163 38052 ft 445 kts 329°
2026-05-05 07:59 54.62696 -2.85256 38049 ft 444 kts 329°
2026-05-05 08:00 54.68126 -2.90353 38051 ft 444 kts 329°
2026-05-05 08:00 54.73532 -2.95445 38055 ft 444 kts 329°
2026-05-05 08:01 54.78967 -3.00575 38051 ft 444 kts 329°
2026-05-05 08:01 54.84404 -3.05723 38052 ft 444 kts 329°
2026-05-05 08:02 54.89795 -3.10850 38044 ft 444 kts 329°
2026-05-05 08:02 54.95211 -3.16014 38036 ft 443 kts 329°
2026-05-05 08:03 55.00627 -3.21192 38039 ft 443 kts 329°
2026-05-05 08:03 55.06033 -3.26377 38041 ft 443 kts 329°
2026-05-05 08:04 55.11423 -3.31562 38032 ft 443 kts 329°
2026-05-05 08:04 55.16802 -3.36754 38037 ft 443 kts 329°
2026-05-05 08:05 55.22195 -3.41975 38037 ft 442 kts 328°
2026-05-05 08:05 55.27585 -3.47209 38036 ft 442 kts 328°
2026-05-05 08:06 55.32964 -3.52451 38038 ft 442 kts 328°
2026-05-05 08:06 55.38307 -3.57671 38041 ft 442 kts 328°
2026-05-05 08:07 55.43675 -3.62933 38034 ft 441 kts 328°
2026-05-05 08:07 55.49037 -3.68210 38041 ft 441 kts 328°
2026-05-05 08:08 55.54398 -3.73495 38038 ft 440 kts 328°
2026-05-05 08:08 55.59716 -3.78756 38042 ft 440 kts 328°
2026-05-05 08:09 55.65055 -3.84055 38044 ft 439 kts 328°
2026-05-05 08:09 55.70386 -3.89368 38043 ft 439 kts 328°
2026-05-05 08:10 55.75723 -3.94700 38049 ft 439 kts 328°
2026-05-05 08:10 55.81048 -4.00036 38047 ft 439 kts 328°
2026-05-05 08:11 55.86371 -4.05384 38049 ft 439 kts 328°
2026-05-05 08:11 55.91658 -4.10716 38055 ft 439 kts 328°
2026-05-05 08:12 55.96975 -4.16097 38054 ft 438 kts 327°
2026-05-05 08:12 56.02256 -4.21470 38057 ft 438 kts 327°
2026-05-05 08:13 56.07560 -4.26868 38058 ft 438 kts 327°
2026-05-05 08:13 56.12858 -4.32280 38057 ft 438 kts 327°
2026-05-05 08:14 56.18154 -4.37708 38057 ft 437 kts 327°
2026-05-05 08:14 56.23408 -4.43108 38063 ft 437 kts 327°
2026-05-05 08:15 56.28689 -4.48555 38060 ft 437 kts 327°
2026-05-05 08:15 56.33971 -4.54016 38049 ft 437 kts 327°
2026-05-05 08:16 56.39242 -4.59485 38058 ft 437 kts 327°
2026-05-05 08:16 56.44477 -4.64933 38067 ft 437 kts 327°
2026-05-05 08:17 56.49745 -4.70432 38070 ft 437 kts 327°
2026-05-05 08:17 56.55027 -4.75967 38074 ft 437 kts 327°
2026-05-05 08:18 56.60288 -4.81501 38073 ft 437 kts 327°
2026-05-05 08:18 56.65522 -4.87027 38077 ft 437 kts 327°
2026-05-05 08:19 56.70782 -4.92647 38077 ft 437 kts 327°
2026-05-05 08:19 56.76015 -4.98212 38085 ft 437 kts 327°
2026-05-05 08:20 56.81289 -5.03783 38083 ft 437 kts 327°
2026-05-05 08:20 56.86545 -5.09385 38091 ft 437 kts 327°
2026-05-05 08:21 56.91796 -5.15017 38088 ft 436 kts 327°
2026-05-05 08:21 56.97003 -5.20622 38091 ft 436 kts 327°
2026-05-05 08:22 57.02229 -5.26294 38093 ft 436 kts 326°
2026-05-05 08:22 57.07481 -5.31907 38092 ft 436 kts 328°
2026-05-05 08:23 57.12762 -5.37312 38091 ft 436 kts 327°
2026-05-05 08:23 57.18054 -5.42820 38102 ft 436 kts 327°
2026-05-05 08:24 57.23358 -5.48289 38101 ft 435 kts 328°
2026-05-05 08:24 57.28609 -5.53704 38106 ft 434 kts 328°
2026-05-05 08:25 57.33871 -5.59215 38110 ft 434 kts 327°
2026-05-05 08:25 57.39131 -5.64763 38111 ft 434 kts 327°
2026-05-05 08:26 57.44382 -5.70294 38116 ft 434 kts 327°
2026-05-05 08:26 57.49589 -5.75803 38124 ft 433 kts 327°
2026-05-05 08:27 57.54841 -5.81305 38130 ft 433 kts 327°
2026-05-05 08:27 57.60062 -5.86835 38130 ft 432 kts 327°
2026-05-05 08:28 57.65296 -5.92403 38139 ft 432 kts 327°
2026-05-05 08:28 57.70493 -5.97954 38143 ft 431 kts 327°
2026-05-05 08:29 57.75703 -6.03548 38148 ft 431 kts 327°
2026-05-05 08:30 57.83497 -6.11953 38151 ft 431 kts 327°
2026-05-05 08:30 57.88672 -6.17556 38154 ft 431 kts 327°
2026-05-05 08:31 57.93882 -6.23201 38158 ft 431 kts 327°
2026-05-05 08:31 57.99065 -6.28851 38166 ft 430 kts 326°
2026-05-05 08:32 58.04225 -6.34486 38166 ft 431 kts 326°
2026-05-05 08:32 58.09417 -6.40203 38174 ft 431 kts 326°
2026-05-05 08:33 58.13733 -6.44948 38173 ft 431 kts 326°
2026-05-05 08:33 58.18927 -6.50650 38172 ft 431 kts 326°
2026-05-05 08:34 58.24109 -6.56381 38173 ft 431 kts 326°
2026-05-05 08:34 58.29297 -6.62143 38174 ft 431 kts 326°
2026-05-05 08:35 58.34456 -6.67897 38173 ft 431 kts 326°
2026-05-05 08:35 58.39629 -6.73681 38174 ft 431 kts 326°
2026-05-05 08:36 58.44786 -6.79467 38177 ft 430 kts 326°
2026-05-05 08:36 58.49951 -6.85283 38176 ft 430 kts 326°
2026-05-05 08:37 58.55084 -6.91082 38174 ft 429 kts 326°
2026-05-05 08:37 58.60234 -6.96922 38178 ft 429 kts 326°
2026-05-05 08:38 58.65379 -7.02779 38179 ft 429 kts 326°
2026-05-05 08:38 58.70483 -7.08612 38180 ft 429 kts 326°
2026-05-05 08:39 58.75622 -7.14500 38180 ft 429 kts 326°
2026-05-05 08:39 58.80758 -7.20403 38180 ft 429 kts 326°
2026-05-05 08:40 58.85894 -7.26328 38180 ft 429 kts 325°
2026-05-05 08:40 58.91022 -7.32265 38184 ft 429 kts 325°
2026-05-05 08:41 58.96120 -7.38193 38179 ft 429 kts 325°
2026-05-05 08:41 59.01249 -7.44167 38185 ft 429 kts 325°
2026-05-05 08:42 59.06364 -7.50147 38187 ft 429 kts 325°
2026-05-05 08:42 59.11434 -7.56104 38186 ft 429 kts 325°
2026-05-05 08:43 59.16541 -7.62125 38187 ft 428 kts 325°
2026-05-05 08:43 59.21643 -7.68157 38193 ft 428 kts 325°
2026-05-05 08:44 59.26746 -7.74215 38194 ft 428 kts 325°
2026-05-05 08:44 59.31812 -7.80244 38191 ft 428 kts 325°
2026-05-05 08:45 59.36908 -7.86345 38193 ft 428 kts 324°
2026-05-05 08:45 59.41989 -7.92437 38194 ft 428 kts 325°
2026-05-05 08:46 59.47059 -7.98578 38196 ft 428 kts 324°
2026-05-05 08:46 59.52117 -8.04728 38195 ft 428 kts 324°
2026-05-05 08:47 59.57188 -8.10857 38199 ft 428 kts 324°
2026-05-05 08:47 59.62266 -8.17019 38198 ft 428 kts 324°
2026-05-05 08:48 59.67338 -8.23166 38197 ft 425 kts 324°
2026-05-05 08:48 59.72342 -8.29281 38190 ft 421 kts 324°
2026-05-05 08:49 59.77303 -8.35389 38202 ft 426 kts 324°
2026-05-05 08:49 59.82338 -8.41606 38203 ft 425 kts 324°
2026-05-05 08:50 59.87331 -8.47787 38187 ft 420 kts 324°
2026-05-05 08:50 59.92307 -8.53968 38199 ft 423 kts 324°
2026-05-05 08:51 59.97290 -8.60186 38204 ft 424 kts 324°
2026-05-05 08:51 60.02271 -8.66414 38204 ft 420 kts 324°
2026-05-05 08:52 60.07234 -8.72654 38205 ft 424 kts 324°
2026-05-05 08:52 60.12242 -8.78968 38206 ft 423 kts 324°
2026-05-05 08:53 60.17176 -8.85208 38203 ft 420 kts 324°
2026-05-05 08:53 60.22128 -8.91507 38213 ft 424 kts 324°
2026-05-05 08:54 60.27119 -8.97867 38205 ft 423 kts 324°
2026-05-05 08:54 60.32058 -9.04185 38201 ft 419 kts 324°
2026-05-05 08:55 60.36971 -9.10494 38208 ft 423 kts 323°
2026-05-05 08:55 60.41957 -9.16924 38208 ft 423 kts 323°
2026-05-05 08:56 60.46896 -9.23304 38208 ft 419 kts 323°
2026-05-05 08:56 60.51827 -9.29716 38215 ft 424 kts 323°
2026-05-05 08:57 60.56794 -9.36178 38214 ft 422 kts 323°
2026-05-05 08:57 60.61649 -9.42689 38210 ft 417 kts 321°
2026-05-05 08:58 60.66351 -9.49657 38214 ft 422 kts 320°
2026-05-05 08:58 60.71116 -9.56758 38213 ft 421 kts 320°
2026-05-05 08:59 60.75805 -9.63725 38216 ft 418 kts 320°
2026-05-05 08:59 60.80545 -9.70753 38221 ft 423 kts 320°
2026-05-05 09:00 60.85292 -9.77838 38207 ft 420 kts 320°
2026-05-05 09:00 60.89986 -9.84894 38211 ft 416 kts 320°
2026-05-05 09:01 60.94654 -9.91943 38231 ft 422 kts 320°
2026-05-05 09:01 60.99244 -9.99417 38214 ft 417 kts 312°
2026-05-05 09:02 61.02536 -10.09041 38225 ft 410 kts 298°
2026-05-05 09:02 61.05324 -10.19433 38228 ft 415 kts 298°
2026-05-05 09:03 61.08116 -10.29772 38217 ft 412 kts 298°
2026-05-05 09:03 61.10905 -10.40105 38222 ft 410 kts 298°
2026-05-05 09:04 61.13702 -10.50490 38226 ft 415 kts 298°
2026-05-05 09:04 61.16478 -10.60854 38226 ft 412 kts 298°
2026-05-05 09:05 61.19244 -10.71219 38223 ft 410 kts 298°
2026-05-05 09:05 61.22014 -10.81676 38229 ft 414 kts 298°
2026-05-05 09:06 61.24783 -10.92154 38228 ft 411 kts 297°
2026-05-05 09:06 61.27507 -11.02509 38233 ft 411 kts 297°
2026-05-05 09:07 61.30252 -11.13019 38238 ft 414 kts 297°
2026-05-05 09:07 61.32995 -11.23537 38235 ft 411 kts 297°
2026-05-05 09:08 61.35705 -11.34001 38236 ft 412 kts 297°
2026-05-05 09:08 61.38440 -11.44595 38241 ft 414 kts 297°
2026-05-05 09:09 61.41148 -11.55158 38240 ft 411 kts 297°
2026-05-05 09:09 61.43841 -11.65687 38247 ft 413 kts 297°
2026-05-05 09:10 61.46533 -11.76271 38240 ft 414 kts 297°
2026-05-05 09:10 61.49213 -11.86861 38246 ft 411 kts 297°
2026-05-05 09:11 61.51883 -11.97475 38253 ft 414 kts 297°
2026-05-05 09:11 61.54564 -12.08174 38247 ft 414 kts 297°
2026-05-05 09:12 61.57216 -12.18809 38247 ft 411 kts 297°
2026-05-05 09:12 61.59861 -12.29476 38250 ft 414 kts 296°
2026-05-05 09:13 61.62523 -12.40245 38248 ft 414 kts 296°
2026-05-05 09:13 61.65159 -12.50962 38248 ft 411 kts 296°
2026-05-05 09:14 61.67769 -12.61598 38257 ft 414 kts 296°
2026-05-05 09:14 61.70402 -12.72410 38251 ft 413 kts 296°
2026-05-05 09:15 61.73011 -12.83173 38256 ft 411 kts 296°
2026-05-05 09:15 61.75603 -12.93926 38255 ft 415 kts 296°
2026-05-05 09:16 61.78208 -13.04779 38256 ft 412 kts 296°
2026-05-05 09:16 61.80791 -13.15594 38254 ft 411 kts 296°
2026-05-05 09:17 61.83379 -13.26493 38260 ft 415 kts 296°
2026-05-05 09:17 61.85941 -13.37341 38257 ft 412 kts 296°
2026-05-05 09:18 61.88498 -13.48213 38258 ft 413 kts 296°
2026-05-05 09:18 61.91063 -13.59183 38261 ft 415 kts 296°
2026-05-05 09:19 61.93593 -13.70064 38256 ft 411 kts 296°
2026-05-05 09:19 61.96125 -13.80985 38262 ft 414 kts 296°
2026-05-05 09:20 61.98668 -13.92024 38260 ft 415 kts 296°
2026-05-05 09:20 62.00772 -14.01174 38257 ft 412 kts 296°
2026-05-05 09:21 62.03692 -14.13972 38259 ft 415 kts 295°
2026-05-05 09:21 62.05802 -14.23272 38257 ft 415 kts 295°
2026-05-05 09:22 62.08299 -14.34337 38255 ft 412 kts 295°
2026-05-05 09:22 62.10774 -14.45342 38258 ft 416 kts 295°
2026-05-05 09:23 62.13266 -14.56506 38254 ft 415 kts 295°
2026-05-05 09:23 62.15739 -14.67608 38251 ft 412 kts 295°
2026-05-05 09:24 62.18207 -14.78757 38254 ft 417 kts 295°
2026-05-05 09:24 62.20675 -14.89978 38252 ft 415 kts 295°
2026-05-05 09:25 62.23107 -15.01068 38253 ft 413 kts 295°
2026-05-05 09:25 62.25555 -15.12322 38253 ft 417 kts 295°
2026-05-05 09:26 62.27996 -15.23593 38250 ft 414 kts 295°
2026-05-05 09:26 62.30414 -15.34814 38247 ft 414 kts 295°
2026-05-05 09:27 62.32840 -15.46140 38253 ft 417 kts 295°
2026-05-05 09:27 62.35246 -15.57443 38254 ft 414 kts 295°
2026-05-05 09:28 62.37628 -15.68657 38252 ft 416 kts 295°
2026-05-05 09:28 62.40034 -15.80068 38249 ft 416 kts 294°
2026-05-05 09:29 62.42415 -15.91426 38251 ft 414 kts 294°
2026-05-05 09:29 62.44793 -16.02832 38253 ft 418 kts 294°
2026-05-05 09:30 62.47153 -16.14224 38248 ft 416 kts 294°
2026-05-05 09:30 62.49501 -16.25590 38254 ft 414 kts 294°
2026-05-05 09:31 62.51855 -16.37084 38257 ft 419 kts 294°
2026-05-05 09:31 62.54202 -16.48583 38253 ft 416 kts 294°
2026-05-05 09:32 62.56526 -16.60052 38252 ft 415 kts 294°
2026-05-05 09:32 62.58839 -16.71505 38260 ft 420 kts 294°
2026-05-05 09:33 62.61165 -16.83094 38257 ft 417 kts 294°
2026-05-05 09:33 62.63459 -16.94611 38261 ft 414 kts 294°
2026-05-05 09:34 62.65767 -17.06235 38262 ft 419 kts 294°
2026-05-05 09:34 62.68062 -17.17886 38257 ft 416 kts 294°
2026-05-05 09:35 62.70317 -17.29385 38256 ft 414 kts 294°
2026-05-05 09:35 62.73714 -17.46854 38265 ft 418 kts 294°
2026-05-05 09:36 62.75966 -17.58485 38267 ft 414 kts 294°
2026-05-05 09:36 62.78202 -17.70131 38273 ft 417 kts 294°
2026-05-05 09:37 62.80435 -17.81811 38270 ft 417 kts 294°
2026-05-05 09:37 62.82641 -17.93483 38268 ft 413 kts 293°
2026-05-05 09:38 62.84839 -18.05141 38277 ft 417 kts 293°
2026-05-05 09:38 62.87056 -18.16931 38274 ft 415 kts 293°
2026-05-05 09:39 62.89216 -18.28495 38275 ft 411 kts 293°
2026-05-05 09:39 62.91385 -18.40163 38281 ft 416 kts 293°
2026-05-05 09:40 62.93547 -18.51917 38277 ft 413 kts 293°
2026-05-05 09:40 62.95688 -18.63591 38278 ft 410 kts 293°
2026-05-05 09:41 62.96743 -18.69361 38060 ft 406 kts 293°
2026-05-05 09:41 62.97874 -18.75144 37780 ft 410 kts 297°
2026-05-05 09:41 62.99355 -18.80502 37525 ft 411 kts 304°
2026-05-05 09:41 63.01020 -18.85600 37270 ft 410 kts 305°
2026-05-05 09:42 63.02706 -18.90684 37015 ft 409 kts 305°
2026-05-05 09:42 63.04376 -18.95749 36761 ft 408 kts 305°
2026-05-05 09:42 63.06044 -19.00821 36462 ft 407 kts 305°
2026-05-05 09:42 63.07672 -19.05803 35956 ft 403 kts 304°
2026-05-05 09:43 63.09304 -19.10805 35391 ft 400 kts 304°
2026-05-05 09:43 63.10939 -19.15828 34783 ft 399 kts 304°
2026-05-05 09:43 63.12549 -19.20797 34127 ft 396 kts 304°
2026-05-05 09:43 63.14148 -19.25742 33356 ft 395 kts 304°
2026-05-05 09:44 63.15725 -19.30615 32644 ft 393 kts 304°
2026-05-05 09:44 63.17310 -19.35540 31936 ft 391 kts 303°
2026-05-05 09:44 63.18881 -19.40429 31249 ft 388 kts 303°
2026-05-05 09:44 63.20443 -19.45292 30581 ft 385 kts 303°
2026-05-05 09:45 63.21989 -19.50109 29829 ft 382 kts 303°
2026-05-05 09:45 63.23520 -19.54912 29001 ft 379 kts 303°
2026-05-05 09:45 63.25039 -19.59677 28192 ft 379 kts 303°
2026-05-05 09:45 63.26568 -19.64478 27399 ft 379 kts 303°
2026-05-05 09:46 63.28084 -19.69249 26588 ft 377 kts 303°
2026-05-05 09:46 63.29591 -19.74007 25787 ft 374 kts 303°
2026-05-05 09:46 63.31085 -19.78730 25057 ft 371 kts 303°
2026-05-05 09:46 63.32556 -19.83392 24449 ft 367 kts 303°
2026-05-05 09:47 63.34013 -19.88028 23910 ft 364 kts 303°
2026-05-05 09:47 63.35438 -19.92561 23309 ft 361 kts 303°
2026-05-05 09:47 63.36884 -19.97170 22724 ft 371 kts 303°
2026-05-05 09:47 63.38381 -20.01952 22350 ft 379 kts 303°
2026-05-05 09:48 63.39869 -20.06712 22053 ft 378 kts 303°
2026-05-05 09:48 63.41395 -20.11609 21768 ft 377 kts 303°
2026-05-05 09:48 63.42863 -20.16332 21432 ft 370 kts 303°
2026-05-05 09:48 63.44310 -20.20987 20933 ft 359 kts 303°
2026-05-05 09:49 63.45716 -20.25519 20414 ft 350 kts 303°
2026-05-05 09:49 63.47091 -20.29965 19914 ft 347 kts 302°
2026-05-05 09:49 63.48461 -20.34406 19425 ft 345 kts 302°
2026-05-05 09:49 63.49818 -20.38822 18938 ft 344 kts 302°
2026-05-05 09:50 63.51173 -20.43230 18424 ft 342 kts 302°
2026-05-05 09:50 63.52518 -20.47615 17798 ft 340 kts 302°
2026-05-05 09:50 63.53856 -20.51989 17257 ft 340 kts 302°
2026-05-05 09:50 63.55183 -20.56531 16799 ft 357 kts 299°
2026-05-05 09:51 63.56172 -20.61542 16354 ft 345 kts 289°
2026-05-05 09:51 63.56829 -20.66663 15909 ft 337 kts 286°
2026-05-05 09:51 63.57433 -20.71679 15455 ft 337 kts 286°
2026-05-05 09:51 63.58047 -20.76761 15039 ft 336 kts 286°
2026-05-05 09:52 63.58662 -20.81835 14705 ft 336 kts 286°
2026-05-05 09:52 63.59276 -20.86894 14368 ft 336 kts 286°
2026-05-05 09:52 63.59886 -20.91932 14021 ft 335 kts 286°
2026-05-05 09:52 63.60497 -20.96981 13630 ft 334 kts 286°
2026-05-05 09:53 63.61110 -21.02062 13145 ft 333 kts 286°
2026-05-05 09:53 63.61712 -21.07104 12691 ft 334 kts 286°
2026-05-05 09:53 63.62312 -21.12101 12241 ft 327 kts 286°
2026-05-05 09:53 63.62883 -21.16879 11947 ft 311 kts 286°
2026-05-05 09:54 63.63429 -21.21463 11734 ft 295 kts 286°
2026-05-05 09:54 63.63944 -21.25807 11564 ft 280 kts 286°
2026-05-05 09:54 63.64430 -21.29934 11395 ft 266 kts 286°
2026-05-05 09:54 63.64895 -21.33865 11218 ft 254 kts 286°
2026-05-05 09:55 63.65338 -21.37628 10938 ft 241 kts 285°
2026-05-05 09:55 63.65759 -21.41218 10730 ft 234 kts 285°
2026-05-05 09:55 63.66175 -21.44762 10550 ft 234 kts 285°
2026-05-05 09:55 63.66590 -21.48309 10317 ft 234 kts 285°
2026-05-05 09:56 63.67003 -21.51855 10047 ft 234 kts 285°
2026-05-05 09:56 63.67409 -21.55349 9749 ft 234 kts 285°
2026-05-05 09:56 63.67820 -21.58899 9467 ft 234 kts 285°
2026-05-05 09:56 63.68234 -21.62469 9185 ft 234 kts 285°
2026-05-05 09:57 63.68645 -21.66028 8940 ft 234 kts 286°
2026-05-05 09:57 63.69056 -21.69584 8675 ft 234 kts 286°
2026-05-05 09:57 63.69466 -21.73146 8417 ft 234 kts 286°
2026-05-05 09:57 63.69876 -21.76713 8168 ft 235 kts 286°
2026-05-05 09:58 63.70283 -21.80282 7925 ft 235 kts 286°
2026-05-05 09:58 63.70690 -21.83848 7657 ft 235 kts 286°
2026-05-05 09:58 63.71094 -21.87423 7277 ft 236 kts 286°
2026-05-05 09:58 63.71503 -21.91035 6858 ft 239 kts 287°
2026-05-05 09:59 63.71916 -21.94689 6518 ft 239 kts 287°
2026-05-05 09:59 63.72322 -21.98278 6230 ft 237 kts 287°
2026-05-05 09:59 63.72730 -22.01890 5955 ft 237 kts 287°
2026-05-05 09:59 63.73138 -22.05503 5689 ft 237 kts 287°
2026-05-05 10:00 63.73543 -22.09113 5427 ft 237 kts 287°
2026-05-05 10:00 63.73947 -22.12721 5163 ft 237 kts 287°
2026-05-05 10:00 63.74349 -22.16338 4898 ft 238 kts 287°
2026-05-05 10:00 63.74752 -22.19966 4605 ft 238 kts 287°
2026-05-05 10:01 63.75148 -22.23546 4327 ft 238 kts 287°
2026-05-05 10:01 63.75551 -22.27174 4043 ft 238 kts 287°
2026-05-05 10:01 63.75951 -22.30789 3805 ft 234 kts 287°
2026-05-05 10:01 63.76338 -22.34321 3627 ft 228 kts 287°
2026-05-05 10:02 63.76731 -22.37804 3481 ft 236 kts 289°
2026-05-05 10:02 63.77250 -22.41265 3296 ft 231 kts 294°
2026-05-05 10:02 63.77810 -22.44667 2976 ft 231 kts 294°
2026-05-05 10:02 63.78372 -22.48100 2688 ft 228 kts 294°
2026-05-05 10:03 63.78899 -22.51357 2519 ft 218 kts 294°
2026-05-05 10:03 63.79414 -22.54540 2459 ft 214 kts 294°
2026-05-05 10:03 63.79968 -22.57661 2473 ft 212 kts 302°
2026-05-05 10:03 63.80942 -22.60019 2475 ft 204 kts 335°
2026-05-05 10:04 63.82281 -22.60822 2408 ft 199 kts 359°
2026-05-05 10:04 63.83640 -22.60806 2298 ft 189 kts
2026-05-05 10:04 63.84898 -22.60657 2228 ft 169 kts
2026-05-05 10:04 63.85996 -22.60582 2189 ft 147 kts
2026-05-05 10:05 63.86637 -22.60566 2102 ft 128 kts
2026-05-05 10:05 63.87730 -22.60553 1952 ft 117 kts
2026-05-05 10:05 63.88543 -22.60550 1841 ft 117 kts
2026-05-05 10:05 63.89355 -22.60549 1684 ft 116 kts
2026-05-05 10:06 63.89901 -22.60548 1578 ft 116 kts
2026-05-05 10:06 63.90696 -22.60548 1412 ft 116 kts
2026-05-05 10:06 63.91500 -22.60548 1242 ft 115 kts
2026-05-05 10:06 63.92298 -22.60547 1063 ft 114 kts
2026-05-05 10:07 63.93091 -22.60547 877 ft 115 kts
2026-05-05 10:07 63.93890 -22.60547 712 ft 114 kts
2026-05-05 10:07 63.94692 -22.60546 560 ft 114 kts
2026-05-05 10:07 63.95489 -22.60534 401 ft 115 kts
2026-05-05 10:08 63.96289 -22.60557 246 ft 114 kts
2026-05-05 10:08 63.97061 -22.60568 204 ft 106 kts
2026-05-05 10:08 63.97686 -22.60540 187 ft 58 kts
2026-05-05 10:08 63.97867 -22.60543 184 ft 16 kts 357°
2026-05-05 10:09 63.98038 -22.60577 184 ft 30 kts 347°
2026-05-05 10:09 63.98241 -22.60776 185 ft 33 kts 332°
2026-05-05 10:09 63.98422 -22.60938 183 ft 17 kts 351°
2026-05-05 10:09 63.98521 -22.61096 186 ft 19 kts 326°
2026-05-05 10:10 63.98662 -22.61134 186 ft 22 kts 356°
2026-05-05 10:10 63.98822 -22.61151 187 ft 24 kts 359°
2026-05-05 10:10 63.98995 -22.61134 185 ft 26 kts
2026-05-05 10:10 63.99135 -22.61154 184 ft 19 kts 321°
2026-05-05 10:11 63.99175 -22.61438 186 ft 21 kts 269°
2026-05-05 10:11 63.99177 -22.61785 186 ft 23 kts 271°
2026-05-05 10:11 63.99190 -22.61915 188 ft 6 kts 296°
2026-05-05 10:11 63.99219 -22.62019 189 ft 9 kts 299°
2026-05-05 10:12 63.99256 -22.62147 191 ft 5 kts 310°
2026-05-05 10:12 63.99277 -22.62193 186 ft 0 kts 318°